Weather History for KPRO - July, 2013

Change the Weather History Date:

Tuesday, July 16, 2013

  Actual Average Record
Temperature  
Mean Temperature 79 °F -  
Max Temperature 90 °F 85 °F 99 °F (1988)
Min Temperature 68 °F 61 °F 48 °F (1985)
Cooling Degree Days 14    
Growing Degree Days 29 (Base 50)    
Moisture  
Dew Point 67 °F    
Average Humidity 66    
Maximum Humidity 89    
Minimum Humidity 41    
Precipitation  
Precipitation 0.00 in - - ()
Sea Level Pressure  
Sea Level Pressure 30.24 in    
Wind  
Wind Speed 4 mph (South)    
Max Wind Speed 8 mph    
Max Gust Speed -    
Visibility 10 miles    
Events      
Averages and records for this station are not official NWS values.
T = Trace of Precipitation, MM = Missing Value Source: NWS Daily Summary

Daily Weather History Graph

Daily Weather History Graph

Search for Another Location

Airport or City:

Trip Planner

Search our weather history database for the weather conditions in past years. The results will help you decide how hot, cold, wet, or windy it might be!

Date:

Astronomy

Jul. 16, 2013 Rise Set
Actual Time 5:55 AM CDT 8:49 PM CDT
Civil Twilight 5:22 AM CDT 9:22 PM CDT
Nautical Twilight 4:41 AM CDT 10:03 PM CDT
Astronomical Twilight 3:52 AM CDT 10:52 PM CDT
Moon 2:29 PM CDT (7/16) 12:28 AM CDT (7/16)
Length of Visible Light 15h 59m
Length of Day
14h 53m
First Quarter, 56% of the Moon is Illuminated
Jul 16
First Quarter
Jul 22
Full
Jul 29
Last Quarter
Aug 6
New
Aug 14
First Quarter

Hourly Weather History & Observations

Time (CDT) Temp. Heat Index Dew Point Humidity Pressure Visibility Wind Dir Wind Speed Gust Speed Precip Events Conditions
12:35 AM 73.8 °F - 68.0 °F 82% 30.21 in 10.0 mi SSE 5.8 mph - N/A   Scattered Clouds
1:15 AM 73.8 °F - 68.0 °F 82% 30.21 in 10.0 mi South 6.9 mph - N/A   Clear
1:55 AM 72.3 °F - 67.8 °F 86% 30.21 in 10.0 mi SSE 3.5 mph - N/A   Clear
2:35 AM 71.4 °F - 67.3 °F 87% 30.21 in 10.0 mi SSE 3.5 mph - N/A   Clear
2:55 AM 70.9 °F - 67.1 °F 88% 30.21 in 10.0 mi Calm Calm - N/A   Clear
3:15 AM 70.5 °F - 66.9 °F 88% 30.21 in 7.0 mi SE 5.8 mph - N/A   Clear
3:35 AM 70.0 °F - 66.6 °F 89% 30.21 in 7.0 mi SE 5.8 mph - N/A   Clear
4:15 AM 70.0 °F - 66.4 °F 88% 30.21 in 10.0 mi SE 4.6 mph - N/A   Clear
4:35 AM 69.4 °F - 65.8 °F 88% 30.22 in 7.0 mi South 3.5 mph - N/A   Clear
4:55 AM 69.8 °F - 66.2 °F 88% 30.22 in 10.0 mi South 3.5 mph - N/A   Clear
5:15 AM 69.4 °F - 66.0 °F 89% 30.22 in 10.0 mi SSE 3.5 mph - N/A   Clear
5:55 AM 68.9 °F - 65.7 °F 89% 30.23 in 7.0 mi SSE 5.8 mph - N/A   Clear
6:15 AM 69.8 °F - 66.6 °F 89% 30.23 in 7.0 mi SSE 4.6 mph - N/A   Clear
6:35 AM 69.8 °F - 66.4 °F 89% 30.23 in 7.0 mi South 4.6 mph - N/A   Clear
6:55 AM 70.7 °F - 67.1 °F 88% 30.24 in 7.0 mi SSE 4.6 mph - N/A   Clear
7:15 AM 72.5 °F - 68.0 °F 86% 30.24 in 10.0 mi South 4.6 mph - N/A   Clear
7:35 AM 73.8 °F - 68.4 °F 83% 30.24 in 10.0 mi South 5.8 mph - N/A   Clear
7:55 AM 75.2 °F - 68.2 °F 79% 30.25 in 10.0 mi South 8.1 mph - N/A   Clear
8:15 AM 76.3 °F - 68.4 °F 76% 30.25 in 10.0 mi South 8.1 mph - N/A   Clear
8:35 AM 77.4 °F - 68.5 °F 74% 30.26 in 10.0 mi SSW 8.1 mph - N/A   Clear
8:55 AM 78.4 °F - 68.7 °F 72% 30.26 in 10.0 mi SSW 3.5 mph - N/A   Clear
9:15 AM 79.9 °F - 68.7 °F 69% 30.27 in 10.0 mi SSW 3.5 mph - N/A   Clear
9:35 AM 80.8 °F 83.8 °F 68.7 °F 67% 30.26 in 10.0 mi SSW 3.5 mph - N/A   Clear
9:55 AM 82.0 °F 85.3 °F 68.9 °F 64% 30.27 in 10.0 mi South 4.6 mph - N/A   Clear
10:15 AM 83.1 °F 86.6 °F 68.7 °F 62% 30.27 in 10.0 mi SSW 4.6 mph - N/A   Clear
10:55 AM 85.1 °F 87.9 °F 67.3 °F 55% 30.27 in 10.0 mi SSE 3.5 mph - N/A   Clear
11:15 AM 86.5 °F 88.7 °F 65.8 °F 50% 30.27 in 10.0 mi SW 3.5 mph - N/A   Clear
11:35 AM 86.7 °F 89.0 °F 65.8 °F 50% 30.26 in 10.0 mi Calm Calm - N/A   Clear
11:55 AM 87.4 °F 89.5 °F 65.5 °F 48% 30.27 in 10.0 mi South 4.6 mph - N/A   Clear
12:15 PM 87.6 °F 89.7 °F 65.7 °F 48% 30.26 in 10.0 mi WSW 6.9 mph - N/A   Scattered Clouds
12:35 PM 88.5 °F 89.5 °F 63.5 °F 43% 30.26 in 10.0 mi SW 3.5 mph - N/A   Scattered Clouds
12:55 PM 88.7 °F 89.4 °F 63.1 °F 42% 30.26 in 10.0 mi SSW 4.6 mph - N/A   Scattered Clouds
1:15 PM 87.8 °F 88.8 °F 63.3 °F 44% 30.26 in 10.0 mi SSW 3.5 mph - N/A   Scattered Clouds
1:35 PM 87.1 °F 88.3 °F 64.0 °F 46% 30.26 in 10.0 mi SW 4.6 mph - N/A   Mostly Cloudy
1:55 PM 87.6 °F 89.1 °F 64.4 °F 46% 30.25 in 10.0 mi South 4.6 mph - N/A   Mostly Cloudy
2:15 PM 89.4 °F 90.2 °F 63.1 °F 41% 30.25 in 10.0 mi SSE 3.5 mph - N/A   Mostly Cloudy
2:35 PM 87.1 °F 88.6 °F 64.4 °F 47% 30.25 in 10.0 mi South 5.8 mph - N/A   Mostly Cloudy
4:15 PM 88.9 °F 90.3 °F 64.6 °F 44% 30.23 in 10.0 mi South 3.5 mph - N/A   Scattered Clouds
4:35 PM 89.6 °F 91.5 °F 64.9 °F 44% 30.23 in 10.0 mi South 4.6 mph - N/A   Scattered Clouds
4:55 PM 87.8 °F 89.7 °F 65.1 °F 47% 30.23 in 10.0 mi South 3.5 mph - N/A   Scattered Clouds
5:15 PM 87.4 °F 89.8 °F 66.0 °F 49% 30.23 in 10.0 mi South 4.6 mph - N/A   Clear
5:35 PM 90.1 °F 92.3 °F 65.5 °F 44% 30.22 in 10.0 mi South 6.9 mph - N/A   Clear
5:55 PM 87.4 °F 90.8 °F 68.0 °F 52% 30.22 in 10.0 mi South 3.5 mph - N/A   Clear
6:15 PM 89.4 °F 91.9 °F 66.4 °F 46% 30.22 in 10.0 mi South 4.6 mph - N/A   Clear
6:35 PM 89.1 °F 91.7 °F 66.2 °F 47% 30.22 in 10.0 mi South 4.6 mph - N/A   Clear
6:55 PM 88.7 °F 91.5 °F 66.9 °F 48% 30.22 in 10.0 mi SSW 5.8 mph - N/A   Clear
7:15 PM 88.0 °F 90.3 °F 66.0 °F 48% 30.22 in 10.0 mi SSW 4.6 mph - N/A   Clear
7:35 PM 86.9 °F 89.9 °F 67.5 °F 52% 30.22 in 10.0 mi South 4.6 mph - N/A   Clear
7:55 PM 85.1 °F 89.8 °F 70.2 °F 61% 30.22 in 10.0 mi South 4.6 mph - N/A   Clear
8:15 PM 83.5 °F 87.7 °F 70.0 °F 64% 30.23 in 10.0 mi South 3.5 mph - N/A   Clear
8:35 PM 81.9 °F 85.8 °F 70.5 °F 68% 30.23 in 10.0 mi SSW 3.5 mph - N/A   Clear
8:55 PM 80.6 °F 83.9 °F 70.0 °F 70% 30.23 in 10.0 mi Calm Calm - N/A   Scattered Clouds
9:35 PM 79.7 °F - 69.1 °F 70% 30.24 in 10.0 mi Calm Calm - N/A   Scattered Clouds
9:55 PM 78.1 °F - 68.9 °F 73% 30.25 in 10.0 mi Calm Calm - N/A   Scattered Clouds
10:15 PM 78.6 °F - 68.5 °F 71% 30.26 in 10.0 mi Calm Calm - N/A   Scattered Clouds
10:35 PM 77.5 °F - 68.5 °F 74% 30.26 in 10.0 mi South 3.5 mph - N/A   Mostly Cloudy
10:55 PM 76.5 °F - 68.4 °F 76% 30.26 in 10.0 mi SSE 4.6 mph - N/A   Scattered Clouds
11:15 PM 75.7 °F - 68.2 °F 77% 30.26 in 10.0 mi Calm Calm - N/A   Clear
11:35 PM 74.8 °F - 68.0 °F 79% 30.27 in 10.0 mi SSW 3.5 mph - N/A   Clear
11:55 PM 73.9 °F - 67.6 °F 81% 30.27 in 10.0 mi South 3.5 mph - N/A   Clear